• în România
  • Lista ţărilor
  • Pe 7 zile
  • Temperatura apei
  • Hartă satelitară
  • Meteo pe hartă
  • Widget-uri
  • user-avatar
    Intrare

    Meteo pe oră la Simonovo

    Astăzi, 22 Septembrie, Sâmbătă

    Timp Temperatura Precipitaţii Vânt Presiune Umiditate
    00:00 +16°C° 0 mm 2 m/s 749 mmHg 91%
    01:00 +16°C° 0 mm 2 m/s 749 mmHg 93%
    02:00 +15°C° 0 mm 2 m/s 748 mmHg 94%
    03:00 +15°C° 0 mm 2 m/s 748 mmHg 95%
    04:00 +14°C° 0 mm 3 m/s 748 mmHg 95%
    05:00 +14°C° 0 mm 3 m/s 748 mmHg 96%
    06:00 +16°C° 0 mm 3 m/s 747 mmHg 91%
    07:00 +18°C° 0 mm 4 m/s 747 mmHg 85%
    08:00 +19°C° 0 mm 4 m/s 747 mmHg 80%
    09:00 +20°C° 0 mm 4 m/s 746 mmHg 72%
    10:00 +22°C° 0 mm 5 m/s 746 mmHg 64%
    11:00 +25°C° 0 mm 5 m/s 746 mmHg 56%
    12:00 +24°C° 0 mm 6 m/s 745 mmHg 54%
    13:00 +24°C° 0 mm 6 m/s 745 mmHg 52%
    14:00 +26°C° 0 mm 6 m/s 744 mmHg 50%
    15:00 +25°C° 0 mm 5 m/s 744 mmHg 55%
    16:00 +22°C° 0 mm 4 m/s 743 mmHg 60%
    17:00 +21°C° 0 mm 4 m/s 743 mmHg 65%
    18:00 +20°C° 0.3 mm 4 m/s 743 mmHg 70%
    19:00 +19°C° 0.3 mm 4 m/s 743 mmHg 76%
    20:00 +17°C° 0.3 mm 4 m/s 743 mmHg 81%
    21:00 +16°C° 0.1 mm 3 m/s 743 mmHg 83%
    22:00 +13°C° 0.1 mm 3 m/s 743 mmHg 86%
    23:00 +13°C° 0.1 mm 2 m/s 743 mmHg 88%

    Mâine, 23 Septembrie, Duminică

    Timp Temperatura Precipitaţii Vânt Presiune Umiditate
    00:00 +13°C° 0.1 mm 2 m/s 743 mmHg 88%
    01:00 +12°C° 0.1 mm 2 m/s 743 mmHg 88%
    02:00 +11°C° 0.1 mm 3 m/s 743 mmHg 88%
    03:00 +12°C° 0.4 mm 2 m/s 743 mmHg 89%
    04:00 +10°C° 0.4 mm 2 m/s 743 mmHg 90%
    05:00 +10°C° 0.4 mm 2 m/s 743 mmHg 91%
    06:00 +10°C° 1.4 mm 2 m/s 743 mmHg 92%
    07:00 +10°C° 1.4 mm 2 m/s 742 mmHg 93%
    08:00 +9°C° 1.4 mm 2 m/s 742 mmHg 94%
    09:00 +10°C° 0.8 mm 2 m/s 742 mmHg 92%
    10:00 +10°C° 0.8 mm 3 m/s 742 mmHg 91%
    11:00 +11°C° 0.8 mm 3 m/s 742 mmHg 89%
    12:00 +12°C° 0.1 mm 3 m/s 742 mmHg 83%
    13:00 +13°C° 0.1 mm 3 m/s 742 mmHg 78%
    14:00 +13°C° 0.1 mm 3 m/s 742 mmHg 72%
    15:00 +13°C° 0.1 mm 3 m/s 742 mmHg 75%
    16:00 +12°C° 0.1 mm 3 m/s 742 mmHg 78%
    17:00 +12°C° 0.1 mm 2 m/s 742 mmHg 80%
    18:00 +12°C° 0 mm 2 m/s 742 mmHg 83%
    19:00 +10°C° 0 mm 2 m/s 742 mmHg 86%
    20:00 +9°C° 0 mm 2 m/s 742 mmHg 88%
    21:00 +8°C° 0 mm 2 m/s 742 mmHg 89%
    22:00 +8°C° 0 mm 3 m/s 742 mmHg 89%
    23:00 +8°C° 0 mm 3 m/s 742 mmHg 90%

    Poimâine, 24 Septembrie, Luni

    Timp Temperatura Precipitaţii Vânt Presiune Umiditate
    00:00 +7°C° 0 mm 3 m/s 742 mmHg 91%
    01:00 +7°C° 0 mm 3 m/s 742 mmHg 92%
    02:00 +7°C° 0 mm 2 m/s 742 mmHg 93%
    03:00 +7°C° 0 mm 3 m/s 742 mmHg 93%
    04:00 +5°C° 0 mm 3 m/s 742 mmHg 94%
    05:00 +5°C° 0 mm 3 m/s 742 mmHg 95%
    06:00 +7°C° 0 mm 3 m/s 742 mmHg 91%
    07:00 +8°C° 0 mm 3 m/s 742 mmHg 88%
    08:00 +9°C° 0 mm 3 m/s 742 mmHg 84%
    09:00 +10°C° 0 mm 3 m/s 742 mmHg 78%
    10:00 +11°C° 0 mm 3 m/s 742 mmHg 73%
    11:00 +12°C° 0 mm 3 m/s 742 mmHg 67%
    12:00 +12°C° 0.2 mm 3 m/s 741 mmHg 67%
    13:00 +12°C° 0.2 mm 3 m/s 741 mmHg 68%
    14:00 +12°C° 0.2 mm 3 m/s 741 mmHg 69%
    15:00 +11°C° 1.3 mm 3 m/s 740 mmHg 77%
    16:00 +10°C° 1.3 mm 3 m/s 739 mmHg 85%
    17:00 +8°C° 1.3 mm 4 m/s 738 mmHg 92%
    18:00 +8°C° 1.4 mm 4 m/s 737 mmHg 92%
    19:00 +8°C° 1.4 mm 5 m/s 736 mmHg 92%
    20:00 +8°C° 1.4 mm 5 m/s 735 mmHg 92%
    21:00 +7°C° 3.4 mm 6 m/s 733 mmHg 92%
    22:00 +7°C° 3.4 mm 6 m/s 732 mmHg 93%
    23:00 +7°C° 3.4 mm 6 m/s 730 mmHg 94%

    25 Septembrie, Marţi

    Timp Temperatura Precipitaţii Vânt Presiune Umiditate
    00:00 +7°C° 3 mm 6 m/s 729 mmHg 94%
    01:00 +7°C° 3 mm 5 m/s 728 mmHg 94%
    02:00 +8°C° 3 mm 5 m/s 727 mmHg 94%
    03:00 +7°C° 1.3 mm 4 m/s 726 mmHg 94%
    04:00 +7°C° 1.3 mm 4 m/s 726 mmHg 94%
    05:00 +8°C° 1.3 mm 3 m/s 725 mmHg 94%
    06:00 +8°C° 0.7 mm 3 m/s 725 mmHg 93%
    07:00 +7°C° 0.7 mm 4 m/s 726 mmHg 93%
    08:00 +7°C° 0.7 mm 4 m/s 726 mmHg 92%
    09:00 +7°C° 0.7 mm 5 m/s 727 mmHg 92%
    10:00 +7°C° 0.7 mm 6 m/s 727 mmHg 91%
    11:00 +6°C° 0.7 mm 7 m/s 728 mmHg 90%
    12:00 +5°C° 0.9 mm 7 m/s 729 mmHg 89%
    13:00 +5°C° 0.9 mm 8 m/s 730 mmHg 88%
    14:00 +5°C° 0.9 mm 8 m/s 731 mmHg 87%
    15:00 +5°C° 0.7 mm 8 m/s 732 mmHg 86%
    16:00 +3°C° 0.7 mm 9 m/s 733 mmHg 85%
    17:00 +3°C° 0.7 mm 9 m/s 734 mmHg 83%
    18:00 +4°C° 0.3 mm 8 m/s 735 mmHg 83%
    19:00 +4°C° 0.3 mm 8 m/s 736 mmHg 83%
    20:00 +4°C° 0.3 mm 8 m/s 736 mmHg 83%
    21:00 +4°C° 0.1 mm 8 m/s 737 mmHg 82%
    22:00 +3°C° 0.1 mm 7 m/s 737 mmHg 82%
    23:00 +3°C° 0.1 mm 7 m/s 738 mmHg 81%

    26 Septembrie, Miercuri

    Timp Temperatura Precipitaţii Vânt Presiune Umiditate
    00:00 +3°C° 0 mm 7 m/s 738 mmHg 81%
    01:00 +2°C° 0 mm 6 m/s 739 mmHg 81%
    02:00 +2°C° 0 mm 6 m/s 740 mmHg 80%
    03:00 +1°C° 0 mm 6 m/s 740 mmHg 80%
    04:00 +1°C° 0 mm 5 m/s 741 mmHg 80%
    05:00 +1°C° 0 mm 5 m/s 742 mmHg 80%
    06:00 +1°C° 0 mm 5 m/s 742 mmHg 77%
    07:00 +1°C° 0 mm 5 m/s 743 mmHg 74%
    08:00 +2°C° 0 mm 5 m/s 744 mmHg 70%
    09:00 +3°C° 0 mm 5 m/s 744 mmHg 65%
    10:00 +5°C° 0 mm 5 m/s 745 mmHg 60%
    11:00 +6°C° 0 mm 5 m/s 745 mmHg 55%
    12:00 +7°C° 0 mm 5 m/s 746 mmHg 54%
    13:00 +7°C° 0 mm 4 m/s 747 mmHg 52%
    14:00 +7°C° 0 mm 4 m/s 747 mmHg 51%
    15:00 +6°C° 0 mm 4 m/s 748 mmHg 56%
    16:00 +5°C° 0 mm 3 m/s 748 mmHg 61%
    17:00 +5°C° 0 mm 2 m/s 749 mmHg 66%
    18:00 +4°C° 0 mm 2 m/s 749 mmHg 70%
    19:00 +4°C° 0 mm 2 m/s 750 mmHg 73%
    20:00 +3°C° 0 mm 2 m/s 750 mmHg 76%
    21:00 +2°C° 0 mm 2 m/s 751 mmHg 78%
    22:00 +2°C° 0 mm 2 m/s 751 mmHg 80%
    23:00 +2°C° 0 mm 2 m/s 751 mmHg 82%

    27 Septembrie, Joi

    Timp Temperatura Precipitaţii Vânt Presiune Umiditate
    00:00 +2°C° 0 mm 2 m/s 751 mmHg 82%
    01:00 +2°C° 0 mm 2 m/s 751 mmHg 81%
    02:00 +2°C° 0 mm 2 m/s 751 mmHg 81%
    03:00 +2°C° 0 mm 2 m/s 751 mmHg 79%
    04:00 +1°C° 0 mm 3 m/s 750 mmHg 77%
    05:00 +1°C° 0 mm 3 m/s 750 mmHg 75%
    06:00 +1°C° 0 mm 4 m/s 749 mmHg 72%
    07:00 +2°C° 0 mm 5 m/s 749 mmHg 70%
    08:00 +3°C° 0 mm 5 m/s 748 mmHg 67%
    09:00 +4°C° 0.1 mm 6 m/s 747 mmHg 68%
    10:00 +5°C° 0.1 mm 6 m/s 747 mmHg 70%
    11:00 +6°C° 0.1 mm 7 m/s 746 mmHg 71%
    12:00 +6°C° 1 mm 7 m/s 745 mmHg 76%
    13:00 +5°C° 1 mm 7 m/s 744 mmHg 81%
    14:00 +5°C° 1 mm 8 m/s 743 mmHg 86%
    15:00 +5°C° 0.9 mm 8 m/s 742 mmHg 86%
    16:00 +6°C° 0.9 mm 8 m/s 742 mmHg 87%
    17:00 +6°C° 0.9 mm 8 m/s 741 mmHg 88%
    18:00 +7°C° 0.2 mm 8 m/s 741 mmHg 88%
    19:00 +8°C° 0.2 mm 7 m/s 740 mmHg 88%
    20:00 +9°C° 0.2 mm 7 m/s 740 mmHg 88%
    21:00 +9°C° 0.1 mm 7 m/s 740 mmHg 88%
    22:00 +9°C° 0.1 mm 6 m/s 739 mmHg 88%
    23:00 +9°C° 0.1 mm 6 m/s 739 mmHg 88%
    Arată mai mult